sat.trackr.live / text

‹ back to catalog

STARLINK-30911

NORAD 58374 · 2023-178A

PAYLOAD ACTIVE UNKNOWN

§ Identity

Operator
Country
US
Launch date
2023-11-20
Launch site
AFWTR
Launch vehicle
Mass (kg)
RCS (m²)

Purposes: comms

External: N2YO · Heavens-Above · Gunter

§ Orbital elements

Epoch: 2026-09-20T01:17:06.821952Z

Period
93.85 min
Inclination
53.1590°
Eccentricity
0.0001281
Mean motion
15.34387737 rev/d
Perigee alt
461.9 km
Apogee alt
463.6 km
Semi-major
6,840.9 km
B*
6.8697e-5
RAAN
173.7123°
Arg perigee
69.8690°
Mean anomaly
290.2451°
Rev number
15,970

§ Raw data

STARLINK-309111 58374U 23178A   26263.05355118  .00001945  00000+0  68697-4 0  99932 58374  53.1590 173.7123 0001281  69.8690 290.2451 15.34387737159709

JSON: /api/v1/satellites/58374 · /tle

For live sub-satellite position, see the globe view (requires WebGL).

§ Visibility from observer

Set your observer location to see the next 7 days of passes ≥ 10°. The values pass through the URL so the page stays shareable.

No JS? Fill the form by hand. The geolocation button needs JavaScript.